GW4387 Weather Reports


time (UTC)temp
C
wind
direction
speed
KPH
gust
KPH
rain 1hr
cm
rain 24hr
cm
rain mn
cm
humidity
%
barometer
mb
20260504081525 14 11 0.0 3.2 0.00 0.00 0.00 93 1017.0
20260504050020 16 11 0.0 3.2 0.00 0.00 0.00 86 1017.9
20260504044534 17 11 0.0 3.2 0.00 0.00 0.00 84 1018.1
20260504043010 17 89 0.0 3.2 0.00 0.00 0.00 84 1018.4
20260504041515 17 89 1.6 1.6 0.00 0.00 0.00 82 1018.3
20260504040021 18 89 0.0 3.2 0.00 0.00 0.00 79 1018.2
20260504034526 18 89 0.0 3.2 0.00 0.00 0.00 77 1018.4
20260504033010 18 89 0.0 3.2 0.00 0.00 0.00 75 1018.2
20260504031518 19 89 1.6 6.4 0.00 0.00 0.00 73 1018.2
20260504030024 19 96 3.2 9.7 0.00 0.00 0.00 73 1018.1
20260504024506 19 86 3.2 8.0 0.00 0.00 0.00 73 1018.0
20260504023012 19 90 3.2 6.4 0.00 0.00 0.00 73 1017.9
20260504021520 20 84 0.0 6.4 0.00 0.00 0.00 71 1018.0
20260504020027 20 85 3.2 12.9 0.00 0.00 0.00 69 1017.8
20260504014506 20 101 6.4 14.5 0.00 0.00 0.00 68 1017.6
20260504013040 20 109 8.0 16.1 0.00 0.00 0.00 67 1017.3
20260504011520 21 115 4.8 11.3 0.00 0.00 0.00 65 1017.0
20260504010026 21 104 4.8 12.9 0.00 0.00 0.00 64 1016.7
20260504004531 21 71 1.6 6.4 0.00 0.00 0.00 64 1016.7
20260504003032 21 59 1.6 6.4 0.00 0.00 0.00 63 1016.5
20260504001521 22 71 1.6 4.8 0.00 0.00 0.00 63 1016.6
20260504000027 22 27 1.6 6.4 0.00 0.00 0.00 61 1016.5
20260503234527 23 76 0.0 6.4 0.00 0.00 0.00 59 1016.4
20260503233034 23 92 1.6 12.9 0.00 0.00 0.00 56 1016.3
20260503231524 24 143 4.8 14.5 0.00 0.00 0.00 54 1016.4
20260503230029 25 89 6.4 11.3 0.00 0.00 0.00 53 1016.2
20260503224531 25 146 4.8 16.1 0.00 0.00 0.00 53 1016.2
20260503223021 25 85 8.0 16.1 0.00 0.00 0.00 51 1016.1
20260503221527 25 128 4.8 16.1 0.00 0.00 0.00 52 1016.3
20260503220011 25 117 6.4 14.5 0.00 0.00 0.00 52 1016.3
20260503214519 25 24 6.4 11.3 0.00 0.00 0.00 53 1016.2
20260503213023 25 115 0.0 12.9 0.00 0.00 0.00 55 1016.2
20260503211506 26 114 6.4 17.7 0.00 0.00 0.00 50 1016.0
20260503210016 26 53 1.6 8.0 0.00 0.00 0.00 53 1016.1
20260503204522 25 57 3.2 20.9 0.00 0.00 0.00 53 1016.4
20260503203026 26 9 1.6 16.1 0.00 0.00 0.00 52 1016.5
20260503201510 25 189 1.6 16.1 0.00 0.00 0.00 51 1016.7
20260503200019 25 142 4.8 9.7 0.00 0.00 0.00 55 1016.7
20260503194524 25 109 4.8 12.9 0.00 0.08 0.00 53 1017.0
20260503193028 24 201 0.0 16.1 0.00 0.20 0.00 57 1017.2
20260503191512 24 163 0.0 14.5 0.00 0.30 0.00 56 1017.5
20260503190038 25 123 3.2 14.5 0.00 0.38 0.00 54 1017.7
20260503184527 25 281 4.8 14.5 0.00 0.46 0.00 57 1018.0
20260503183026 24 115 4.8 12.9 0.00 0.58 0.00 58 1018.3
20260503181517 24 113 1.6 12.9 0.00 1.17 0.00 59 1018.3
20260503180034 24 86 9.7 17.7 0.00 1.40 0.00 61 1018.4
20260503174527 23 78 3.2 16.1 0.00 1.40 0.00 62 1018.5
20260503173028 23 111 8.0 17.7 0.00 1.40 0.00 62 1018.7
20260503171532 23 83 6.4 20.9 0.00 1.40 0.00 63 1018.9